LNR1024 DAAG-DTTA

Flight info

Callsign LNR1024
Flight time 1h 2m
Altitude 37000
Route BJA1B BJA UA411 MORJA UM978 KEMIR UA411 TUC
Aircraft A320/M-SDE3FGHIRWY/LB1

Departure

Time 2026-04-29 07:23
Airport Houari Boumediene Airport (DAAG)

Arrival

Time 2026-04-29 08:26
Airport Tunis Carthage International Airport (DTTA)
Time Latitude Longitude Altitude Speed Heading
2026-04-29 07:00 36.69749 3.20442 75 ft 0 kts 88°
2026-04-29 07:14 36.69749 3.20438 75 ft 3 kts 89°
2026-04-29 07:14 36.69749 3.20409 75 ft 3 kts 95°
2026-04-29 07:15 36.69752 3.20381 75 ft 3 kts 102°
2026-04-29 07:15 36.69758 3.20353 75 ft 3 kts 110°
2026-04-29 07:15 36.69768 3.20327 75 ft 3 kts 126°
2026-04-29 07:15 36.69783 3.20308 74 ft 3 kts 166°
2026-04-29 07:16 36.69790 3.20306 74 ft 0 kts 181°
2026-04-29 07:17 36.69771 3.20305 74 ft 9 kts 182°
2026-04-29 07:18 36.69717 3.20328 74 ft 8 kts 118°
2026-04-29 07:18 36.69704 3.20392 75 ft 7 kts 109°
2026-04-29 07:18 36.69673 3.20423 75 ft 5 kts 175°
2026-04-29 07:18 36.69638 3.20423 75 ft 5 kts 182°
2026-04-29 07:19 36.69604 3.20424 74 ft 6 kts 168°
2026-04-29 07:19 36.69583 3.20507 75 ft 11 kts 90°
2026-04-29 07:19 36.69582 3.20598 75 ft 10 kts 91°
2026-04-29 07:19 36.69580 3.20678 75 ft 9 kts 91°
2026-04-29 07:20 36.69580 3.20748 75 ft 8 kts 90°
2026-04-29 07:20 36.69565 3.20802 75 ft 6 kts 131°
2026-04-29 07:20 36.69502 3.20834 75 ft 11 kts 163°
2026-04-29 07:20 36.69430 3.20862 75 ft 13 kts 162°
2026-04-29 07:21 36.69325 3.20906 75 ft 18 kts 161°
2026-04-29 07:21 36.69210 3.20954 76 ft 14 kts 161°
2026-04-29 07:21 36.69134 3.20919 77 ft 11 kts 230°
2026-04-29 07:21 36.69116 3.20851 77 ft 0 kts 269°
2026-04-29 07:22 36.69117 3.20743 76 ft 49 kts 271°
2026-04-29 07:23 36.69136 3.19980 72 ft 123 kts 271°
2026-04-29 07:23 36.69165 3.18672 171 ft 169 kts 271°
2026-04-29 07:23 36.69186 3.17230 963 ft 167 kts 271°
2026-04-29 07:23 36.69204 3.15789 1813 ft 168 kts 271°
2026-04-29 07:24 36.69224 3.14266 2378 ft 185 kts 272°
2026-04-29 07:24 36.69246 3.12584 2785 ft 209 kts 271°
2026-04-29 07:24 36.69273 3.10660 3286 ft 234 kts 271°
2026-04-29 07:24 36.69292 3.08525 3851 ft 259 kts 268°
2026-04-29 07:25 36.68950 3.06244 4575 ft 275 kts 249°
2026-04-29 07:25 36.68058 3.04127 5572 ft 278 kts 230°
2026-04-29 07:25 36.66715 3.02444 6692 ft 273 kts 213°
2026-04-29 07:25 36.65048 3.01330 7833 ft 270 kts 198°
2026-04-29 07:26 36.63205 3.00869 8851 ft 273 kts 182°
2026-04-29 07:26 36.61303 3.01107 9780 ft 279 kts 167°
2026-04-29 07:26 36.59499 3.02071 10662 ft 288 kts 150°
2026-04-29 07:26 36.57970 3.03743 11522 ft 300 kts 132°
2026-04-29 07:27 36.56905 3.06027 12367 ft 312 kts 112°
2026-04-29 07:27 36.56498 3.08719 13203 ft 323 kts 92°
2026-04-29 07:27 36.56808 3.11537 13854 ft 339 kts 79°
2026-04-29 07:27 36.57331 3.14492 14219 ft 359 kts 78°
2026-04-29 07:28 36.57891 3.17571 14885 ft 367 kts 78°
2026-04-29 07:28 36.58459 3.20687 15634 ft 372 kts 78°
2026-04-29 07:28 36.59031 3.23850 16382 ft 377 kts 78°
2026-04-29 07:28 36.59604 3.27055 17102 ft 381 kts 78°
2026-04-29 07:29 36.60177 3.30296 17818 ft 385 kts 78°
2026-04-29 07:29 36.60751 3.33570 18517 ft 389 kts 78°
2026-04-29 07:29 36.61329 3.36879 19198 ft 393 kts 78°
2026-04-29 07:29 36.61919 3.40221 19861 ft 397 kts 79°
2026-04-29 07:30 36.62511 3.43608 20503 ft 401 kts 79°
2026-04-29 07:30 36.63099 3.46976 21117 ft 405 kts 79°
2026-04-29 07:30 36.63706 3.50462 21739 ft 409 kts 79°
2026-04-29 07:31 36.64903 3.57408 22874 ft 417 kts 81°
2026-04-29 07:31 36.65307 3.60994 23404 ft 420 kts 85°
2026-04-29 07:31 36.65571 3.64624 23959 ft 423 kts 88°
2026-04-29 07:31 36.65743 3.68289 24492 ft 425 kts 89°
2026-04-29 07:32 36.65868 3.71993 24978 ft 429 kts 90°
2026-04-29 07:32 36.65986 3.75721 25441 ft 434 kts 90°
2026-04-29 07:32 36.66120 3.79498 25878 ft 439 kts 89°
2026-04-29 07:32 36.66277 3.83315 26315 ft 443 kts 89°
2026-04-29 07:33 36.66454 3.87169 26728 ft 448 kts 89°
2026-04-29 07:33 36.66644 3.91054 27135 ft 452 kts 89°
2026-04-29 07:33 36.66839 3.94978 27551 ft 456 kts 89°
2026-04-29 07:33 36.67033 3.98940 27947 ft 460 kts 89°
2026-04-29 07:34 36.67222 4.02936 28331 ft 464 kts 89°
2026-04-29 07:34 36.67408 4.06965 28698 ft 468 kts 89°
2026-04-29 07:34 36.67593 4.11034 29085 ft 472 kts 89°
2026-04-29 07:34 36.67774 4.15145 29422 ft 477 kts 89°
2026-04-29 07:35 36.67953 4.19281 29778 ft 481 kts 89°
2026-04-29 07:35 36.68132 4.23453 30124 ft 484 kts 89°
2026-04-29 07:35 36.68314 4.27661 30482 ft 487 kts 89°
2026-04-29 07:35 36.68499 4.31883 30834 ft 490 kts 89°
2026-04-29 07:36 36.68686 4.36151 31178 ft 493 kts 89°
2026-04-29 07:36 36.68873 4.40430 31540 ft 495 kts 89°
2026-04-29 07:36 36.69054 4.44667 31964 ft 495 kts 89°
2026-04-29 07:36 36.69233 4.48946 32424 ft 494 kts 89°
2026-04-29 07:37 36.69410 4.53219 32881 ft 493 kts 89°
2026-04-29 07:37 36.69587 4.57492 33330 ft 493 kts 89°
2026-04-29 07:37 36.69763 4.61763 33770 ft 492 kts 89°
2026-04-29 07:37 36.69937 4.66017 34164 ft 492 kts 89°
2026-04-29 07:38 36.70110 4.70275 34544 ft 492 kts 89°
2026-04-29 07:38 36.70281 4.74525 34949 ft 490 kts 89°
2026-04-29 07:38 36.70447 4.78759 35352 ft 489 kts 89°
2026-04-29 07:38 36.70612 4.82993 35721 ft 488 kts 89°
2026-04-29 07:39 36.70778 4.87226 36080 ft 488 kts 89°
2026-04-29 07:39 36.70942 4.91450 36416 ft 487 kts 89°
2026-04-29 07:39 36.71102 4.95664 36707 ft 487 kts 89°
2026-04-29 07:39 36.71260 4.99885 37047 ft 486 kts 89°
2026-04-29 07:40 36.71414 5.04067 37416 ft 483 kts 89°
2026-04-29 07:40 36.71581 5.08251 37769 ft 482 kts 88°
2026-04-29 07:40 36.71864 5.12405 37882 ft 480 kts 85°
2026-04-29 07:40 36.72273 5.16534 37898 ft 479 kts 83°
2026-04-29 07:41 36.73266 5.24725 37897 ft 477 kts 82°
2026-04-29 07:41 36.74236 5.32911 37907 ft 477 kts 83°
2026-04-29 07:42 36.75093 5.41115 37906 ft 477 kts 84°
2026-04-29 07:42 36.75903 5.49278 37898 ft 478 kts 84°
2026-04-29 07:43 36.76734 5.57546 37895 ft 478 kts 84°
2026-04-29 07:43 36.77576 5.65775 37897 ft 478 kts 84°
2026-04-29 07:44 36.78417 5.74001 37898 ft 478 kts 84°
2026-04-29 07:44 36.79241 5.82241 37899 ft 479 kts 84°
2026-04-29 07:45 36.79839 5.90498 37900 ft 478 kts 90°
2026-04-29 07:45 36.80046 5.98781 37899 ft 478 kts 90°
2026-04-29 07:46 36.80262 6.07064 37897 ft 477 kts 90°
2026-04-29 07:46 36.80462 6.15347 37896 ft 477 kts 90°
2026-04-29 07:47 36.80654 6.23626 37907 ft 478 kts 90°
2026-04-29 07:47 36.80834 6.31856 37912 ft 477 kts 90°
2026-04-29 07:48 36.81008 6.40146 37924 ft 477 kts 90°
2026-04-29 07:48 36.81185 6.48436 37932 ft 477 kts 90°
2026-04-29 07:49 36.81361 6.56710 37943 ft 477 kts 90°
2026-04-29 07:49 36.81527 6.64991 37948 ft 477 kts 90°
2026-04-29 07:50 36.81690 6.73267 37963 ft 477 kts 90°
2026-04-29 07:50 36.81845 6.81537 37987 ft 477 kts 90°
2026-04-29 07:51 36.81991 6.89820 37995 ft 477 kts 90°
2026-04-29 07:51 36.82126 6.98073 37997 ft 476 kts 90°
2026-04-29 07:52 36.82265 7.06352 37996 ft 476 kts 90°
2026-04-29 07:52 36.82402 7.14604 37987 ft 476 kts 90°
2026-04-29 07:53 36.82533 7.22850 37974 ft 475 kts 90°
2026-04-29 07:53 36.82634 7.29715 37966 ft 475 kts 90°
2026-04-29 07:54 36.82742 7.37958 37954 ft 476 kts 90°
2026-04-29 07:54 36.82846 7.46217 37952 ft 476 kts 90°
2026-04-29 07:55 36.82953 7.54482 37946 ft 476 kts 90°
2026-04-29 07:55 36.83051 7.62731 37937 ft 475 kts 90°
2026-04-29 07:56 36.83142 7.70983 37931 ft 476 kts 90°
2026-04-29 07:56 36.83224 7.79262 37927 ft 476 kts 90°
2026-04-29 07:57 36.83294 7.87528 37924 ft 476 kts 90°
2026-04-29 07:57 36.83339 7.95824 37796 ft 484 kts 91°
2026-04-29 07:58 36.83352 8.00061 37322 ft 490 kts 91°
2026-04-29 07:58 36.83361 8.04301 36765 ft 487 kts 90°
2026-04-29 07:58 36.83373 8.08527 36185 ft 485 kts 90°
2026-04-29 07:58 36.83388 8.12726 35611 ft 483 kts 90°
2026-04-29 07:59 36.83403 8.16913 35019 ft 482 kts 90°
2026-04-29 07:59 36.83416 8.21088 34414 ft 481 kts 90°
2026-04-29 07:59 36.83426 8.25253 33804 ft 480 kts 90°
2026-04-29 07:59 36.83435 8.29408 33212 ft 478 kts 90°
2026-04-29 08:00 36.83442 8.33509 32627 ft 476 kts 90°
2026-04-29 08:00 36.83446 8.37634 32030 ft 474 kts 90°
2026-04-29 08:00 36.83446 8.41742 31444 ft 471 kts 91°
2026-04-29 08:00 36.83446 8.45822 30872 ft 468 kts 91°
2026-04-29 08:01 36.83448 8.49864 30321 ft 465 kts 91°
2026-04-29 08:01 36.83450 8.53879 29768 ft 461 kts 91°
2026-04-29 08:01 36.83451 8.57877 29242 ft 457 kts 91°
2026-04-29 08:01 36.83450 8.61823 28744 ft 452 kts 91°
2026-04-29 08:02 36.83446 8.65713 28281 ft 446 kts 91°
2026-04-29 08:02 36.83455 8.69561 27820 ft 440 kts 91°
2026-04-29 08:02 36.83481 8.73361 27353 ft 435 kts 90°
2026-04-29 08:02 36.83516 8.77075 26887 ft 419 kts 90°
2026-04-29 08:03 36.83550 8.80647 26424 ft 403 kts 91°
2026-04-29 08:03 36.83575 8.84118 25978 ft 399 kts 91°
2026-04-29 08:03 36.83594 8.87568 25504 ft 396 kts 91°
2026-04-29 08:03 36.83612 8.91005 25032 ft 394 kts 91°
2026-04-29 08:04 36.83626 8.94406 24547 ft 391 kts 91°
2026-04-29 08:04 36.83640 8.97794 24059 ft 389 kts 91°
2026-04-29 08:04 36.83655 9.01123 23573 ft 387 kts 91°
2026-04-29 08:04 36.83669 9.04470 23097 ft 384 kts 91°
2026-04-29 08:05 36.83681 9.07799 22619 ft 382 kts 91°
2026-04-29 08:05 36.83692 9.11099 22139 ft 375 kts 91°
2026-04-29 08:05 36.83703 9.14311 21694 ft 367 kts 91°
2026-04-29 08:05 36.83714 9.17482 21244 ft 365 kts 91°
2026-04-29 08:06 36.83722 9.20648 20810 ft 363 kts 91°
2026-04-29 08:06 36.83728 9.23799 20356 ft 362 kts 91°
2026-04-29 08:06 36.83733 9.26936 19914 ft 361 kts 91°
2026-04-29 08:06 36.83736 9.30062 19477 ft 359 kts 90°
2026-04-29 08:07 36.83740 9.33172 19039 ft 358 kts 90°
2026-04-29 08:07 36.83745 9.36283 18600 ft 357 kts 90°
2026-04-29 08:07 36.83748 9.39364 18162 ft 350 kts 90°
2026-04-29 08:07 36.83750 9.42361 17762 ft 344 kts 90°
2026-04-29 08:08 36.83779 9.45353 17329 ft 345 kts 89°
2026-04-29 08:08 36.83841 9.48349 16905 ft 344 kts 88°
2026-04-29 08:08 36.83912 9.51336 16497 ft 344 kts 88°
2026-04-29 08:08 36.83980 9.54305 16086 ft 338 kts 89°
2026-04-29 08:09 36.84043 9.57185 15701 ft 325 kts 89°
2026-04-29 08:09 36.84100 9.59984 15325 ft 323 kts 89°
2026-04-29 08:09 36.84155 9.62786 14947 ft 323 kts 89°
2026-04-29 08:09 36.84208 9.65558 14580 ft 323 kts 89°
2026-04-29 08:10 36.84264 9.68371 14184 ft 324 kts 89°
2026-04-29 08:10 36.84318 9.71186 13791 ft 323 kts 89°
2026-04-29 08:10 36.84371 9.73966 13410 ft 320 kts 89°
2026-04-29 08:10 36.84420 9.76741 13028 ft 320 kts 89°
2026-04-29 08:11 36.84466 9.79512 12641 ft 319 kts 89°
2026-04-29 08:11 36.84510 9.82290 12242 ft 319 kts 89°
2026-04-29 08:11 36.84556 9.85053 11861 ft 318 kts 89°
2026-04-29 08:11 36.84603 9.87813 11456 ft 317 kts 89°
2026-04-29 08:12 36.84647 9.90562 11052 ft 317 kts 90°
2026-04-29 08:12 36.84691 9.93307 10635 ft 316 kts 90°
2026-04-29 08:12 36.84736 9.96020 10219 ft 307 kts 90°
2026-04-29 08:12 36.84778 9.98630 9825 ft 294 kts 90°
2026-04-29 08:13 36.84819 10.01175 9424 ft 294 kts 90°
2026-04-29 08:13 36.84859 10.03725 9026 ft 293 kts 91°
2026-04-29 08:13 36.84898 10.06273 8599 ft 293 kts 91°
2026-04-29 08:13 36.84932 10.08814 8176 ft 292 kts 91°
2026-04-29 08:14 36.84967 10.11343 7742 ft 291 kts 91°
2026-04-29 08:14 36.85003 10.13838 7352 ft 290 kts 91°
2026-04-29 08:14 36.85041 10.16336 6931 ft 288 kts 91°
2026-04-29 08:14 36.85102 10.18815 6599 ft 284 kts 86°
2026-04-29 08:15 36.85683 10.21157 6001 ft 284 kts 62°
2026-04-29 08:15 36.86976 10.22963 5479 ft 279 kts 38°
2026-04-29 08:15 36.88704 10.23982 5008 ft 275 kts 15°
2026-04-29 08:15 36.90593 10.24471 4512 ft 278 kts 13°
2026-04-29 08:16 36.92494 10.24946 4024 ft 280 kts 13°
2026-04-29 08:16 36.94388 10.25421 3819 ft 273 kts 14°
2026-04-29 08:16 36.96196 10.25872 3742 ft 257 kts 14°
2026-04-29 08:16 36.97905 10.26299 3642 ft 245 kts 14°
2026-04-29 08:17 36.99541 10.26709 3546 ft 234 kts 14°
2026-04-29 08:17 37.01112 10.27103 3427 ft 227 kts 14°
2026-04-29 08:17 37.02619 10.27480 3352 ft 213 kts 14°
2026-04-29 08:17 37.04019 10.27826 3246 ft 198 kts 15°
2026-04-29 08:18 37.05324 10.28062 3166 ft 185 kts
2026-04-29 08:18 37.06514 10.27594 3056 ft 177 kts 325°
2026-04-29 08:18 37.07304 10.26497 2966 ft 166 kts 291°
2026-04-29 08:18 37.07565 10.25150 2889 ft 156 kts 262°
2026-04-29 08:19 37.07332 10.23882 2820 ft 146 kts 236°
2026-04-29 08:19 37.06727 10.22909 2749 ft 138 kts 212°
2026-04-29 08:19 37.05913 10.22351 2687 ft 131 kts 190°
2026-04-29 08:19 37.05016 10.22233 2636 ft 130 kts 170°
2026-04-29 08:20 37.04172 10.22522 2580 ft 132 kts 154°
2026-04-29 08:20 37.03306 10.22978 2510 ft 133 kts 155°
2026-04-29 08:20 37.02446 10.23423 2458 ft 134 kts 155°
2026-04-29 08:20 37.01598 10.23862 2385 ft 133 kts 155°
2026-04-29 08:21 37.00740 10.24307 2316 ft 134 kts 155°
2026-04-29 08:21 36.99881 10.24751 2249 ft 133 kts 155°
2026-04-29 08:21 36.99024 10.25194 2181 ft 132 kts 154°
2026-04-29 08:21 36.98175 10.25635 2126 ft 132 kts 155°
2026-04-29 08:22 36.97276 10.25903 2057 ft 135 kts 178°
2026-04-29 08:22 36.96360 10.25675 1964 ft 137 kts 185°
2026-04-29 08:22 36.95430 10.25468 1783 ft 135 kts 186°
2026-04-29 08:22 36.94506 10.25240 1607 ft 135 kts 187°
2026-04-29 08:23 36.93573 10.24999 1447 ft 141 kts 187°
2026-04-29 08:23 36.92615 10.24742 1236 ft 139 kts 188°
2026-04-29 08:23 36.91677 10.24489 1055 ft 137 kts 188°
2026-04-29 08:23 36.90748 10.24237 874 ft 136 kts 188°
2026-04-29 08:24 36.89821 10.23985 692 ft 136 kts 188°
2026-04-29 08:24 36.88897 10.23734 513 ft 136 kts 189°
2026-04-29 08:24 36.87979 10.23483 328 ft 135 kts 189°
2026-04-29 08:24 36.87055 10.23222 148 ft 136 kts 190°
2026-04-29 08:25 36.86147 10.22982 30 ft 119 kts 191°
2026-04-29 08:25 36.85649 10.22848 25 ft 61 kts 195°
2026-04-29 08:25 36.85245 10.22739 28 ft 60 kts 192°
2026-04-29 08:25 36.84869 10.22640 28 ft 51 kts 192°
2026-04-29 08:26 36.84632 10.22565 23 ft 28 kts 201°
2026-04-29 08:26 36.84516 10.22455 23 ft 20 kts 235°
2026-04-29 08:26 36.84487 10.22373 24 ft 0 kts 253°
2026-04-29 08:27 36.84486 10.22366 24 ft 4 kts 256°
2026-04-29 08:27 36.84469 10.22276 24 ft 12 kts 257°
2026-04-29 08:28 36.84487 10.22193 24 ft 10 kts 294°
2026-04-29 08:28 36.84513 10.22121 25 ft 9 kts 300°
2026-04-29 08:28 36.84545 10.22059 25 ft 8 kts 297°
2026-04-29 08:28 36.84558 10.22018 25 ft 2 kts 290°
2026-04-29 08:29 36.84560 10.22010 25 ft 0 kts 290°